Location: Colonia Mina de C?rbuni
(46.1667°N, 22.7167°E)
Time: 15:36:05
(UTC+00:00)

Courier 1B - Pass Details

Date: 27 April 2024
Orbit: 962 x 1208 km, 28.3° (Epoch: 23 May)

Event Time Altitude Azimuth Distance (km) Brightness Sun altitude
Rises 02:06:02 0° 249° (WSW) 4,017 - -12.3°
Reaches altitude 10° 02:11:28 10° 218° (SW) 2,990 - -11.5°
Exits shadow 02:12:20 11° 211° (SSW) 2,917 9.4 -11.4°
Maximum altitude 02:13:28 11° 201° (SSW) 2,872 9.5 -11.3°
Drops below altitude 10° 02:15:26 10° 185° (S) 2,937 9.6 -11.0°
Sets 02:20:37 0° 153° (SSE) 3,819 10.5 -10.2°
